[[{"header":{"parameterUnit":"m.s-1","parameterCategory":1,"la1":30.2991,"la2":30.254,"lo1":-89.0895,"lo2":-89.0444,"dy":0.0017,"dx":0.0017,"nx":28,"ny":28,"refTime":"2024-03-25T09:00:00:Z","depth":0,"parameterNumber":2,"parameterNumberName":"U-component_of_WINDS"},"data":[0,0,0,0,0,0,0,0,0,0,0,0,0,0,0,0,0,0,0,0,0,0,0,0,0,0,0,0,0,0,0,0,0,0,0,0,0,0,0,0,0,0,0,0,0,0,0,0,0,0,0,0,0,0,0,0,0,0,-5.7245,-5.7247,0,-5.7418,-5.742,-5.7422,-5.7474,-5.7473,-5.7472,-5.7472,-5.7646,-5.7652,-5.7657,0,0,0,0,0,0,0,0,0,0,0,0,0,-5.6958,-5.6963,-5.7245,-5.7247,-5.7249,-5.7418,-5.742,-5.7422,-5.7474,-5.7473,-5.7472,-5.7471,-5.7644,-5.7651,-5.7657,0,0,0,0,0,0,0,0,0,0,0,0,0,-5.7102,-5.6965,-5.7244,-5.7295,-5.7302,-5.7417,-5.742,-5.7423,-5.7474,-5.7473,-5.7472,-5.7471,-5.7642,-5.765,-5.7658,-5.7735,0,0,-5.7683,-5.7687,0,0,0,0,0,0,0,0,-5.7094,-5.7112,-5.7286,-5.7292,-5.7299,-5.7423,-5.7383,-5.7527,-5.7475,-5.7409,-5.7472,-5.747,-5.7573,-5.7587,-5.7622,-5.7743,-5.775,-5.7684,-5.7689,-5.7693,-5.7695,0,0,0,0,0,0,0,-5.7084,-5.7105,-5.7313,-5.7288,-5.7297,-5.7309,-5.7328,-5.7411,-5.7496,-5.7414,-5.7419,-5.7439,-5.7576,-5.7614,-5.7626,-5.7753,-5.7684,-5.7691,-5.7696,-5.7699,-5.7946,-5.7948,0,0,0,0,0,0,-5.7065,-5.7097,-5.7308,-5.7318,-5.7191,-5.7315,-5.7337,-5.7385,-5.7495,-5.7511,-5.7439,-5.744,-5.7601,-5.7617,-5.7633,-5.7729,-5.7692,-5.77,-5.7705,-5.7944,-5.7946,-5.7948,0,0,0,0,0,0,-5.7059,-5.7084,-5.7301,-5.7209,-5.7237,-5.7322,-5.7375,-5.7389,-5.7426,-5.7514,-5.7529,-5.7462,-5.76,-5.7621,-5.7709,-5.7736,-5.7704,-5.7711,-5.7942,-5.7945,-5.7947,-5.7923,0,0,0,0,0,0,-5.7051,-5.7081,-5.7111,-5.7209,-5.7242,-5.7375,-5.7377,-5.7393,-5.7441,-5.7443,-5.754,-5.7554,-5.7601,-5.7697,-5.7717,-5.7747,-5.7718,-5.794,-5.7944,-5.7946,-5.7922,-5.7924,-5.7926,0,0,0,0,0,-5.704,-5.7097,-5.7112,-5.7138,-5.7282,-5.7376,-5.7395,-5.7448,-5.7443,-5.7473,-5.753,-5.7551,-5.773,-5.7705,-5.7729,-5.7761,-5.7939,-5.7943,-5.7946,-5.792,-5.7924,-5.7926,0,0,0,0,0,0,-5.6998,-5.711,-5.7129,-5.7219,-5.7288,-5.7385,-5.7425,-5.745,-5.7521,-5.752,-5.7583,-5.7604,-5.7687,-5.7734,-5.7704,-5.7841,-5.7835,-5.7844,-5.7808,-5.7811,-5.7814,-5.78,-5.7724,0,0,0,0,0,-5.7,-5.7068,-5.7162,-5.7233,-5.7266,-5.734,-5.7383,-5.7418,-5.7491,-5.752,-5.7583,-5.7653,-5.7725,-5.7771,-5.7842,-5.7929,-5.7951,-5.7963,-5.7966,-5.7967,-5.7973,-5.8022,-5.8029,-5.796,-5.796,-5.796,0,0,-5.7003,-5.7073,-5.7112,-5.7226,-5.7283,-5.7352,-5.7364,-5.7435,-5.7487,-5.7531,-5.7618,-5.7667,-5.7749,-5.7837,-5.7878,-5.7878,-5.7997,-5.7972,-5.7972,-5.7978,-5.8027,-5.8033,-5.8039,-5.7963,-5.7962,-5.7962,0,0,-5.7044,-5.7104,-5.7169,-5.7227,-5.7314,-5.7363,-5.7379,-5.7473,-5.7507,-5.7596,-5.763,-5.7692,-5.7815,-5.7872,-5.7917,-5.7982,-5.8003,-5.8003,-5.8015,-5.8062,-5.8067,-5.8072,-5.8094,-5.8102,-5.8009,-5.8009,-5.8009,0,-5.7037,-5.7142,-5.7199,-5.727,-5.7319,-5.7364,-5.743,-5.7483,-5.7589,-5.7621,-5.7619,-5.7775,-5.7834,-5.7935,-5.7951,-5.7987,-5.8006,-5.7991,-5.8062,-5.8068,-5.8073,-5.8095,-5.8103,-5.8009,-5.8009,-5.8009,-5.8009,0,-5.7128,-5.7201,-5.7243,-5.7344,-5.7399,-5.7466,-5.7534,-5.7582,-5.7613,-5.7662,-5.7752,-5.7824,-5.791,-5.7938,-5.7968,-5.8044,-5.8041,-5.805,-5.8045,-5.8078,-5.8099,-5.8108,-5.8008,-5.8008,-5.8008,-5.8008,0,0,-5.7145,-5.7279,-5.7294,-5.7341,-5.7441,-5.7498,-5.7568,-5.7654,-5.7693,-5.7765,-5.7825,-5.7929,-5.7938,-5.7989,-5.8027,-5.8069,-5.8115,-5.8073,-5.8076,-5.8077,-5.8202,-5.8193,-5.8201,-5.8131,-5.8133,-5.8134,-5.8194,0,-5.7198,-5.7325,-5.738,-5.7482,-5.7549,-5.7594,-5.7655,-5.7723,-5.7771,-5.7835,-5.7888,-5.796,-5.7968,-5.7999,-5.8043,-5.81,-5.814,-5.8096,-5.8186,-5.8188,-5.8162,-5.8213,-5.8204,-5.8257,-5.8203,-5.8205,-5.8206,0,-5.7275,-5.7348,-5.7457,-5.755,-5.758,-5.7634,-5.7718,-5.7779,-5.7857,-5.7889,-5.7947,-5.7983,-5.8058,-5.805,-5.8154,-5.8123,-5.8163,-5.8197,-5.82,-5.8209,-5.8197,-5.8221,-5.8275,-5.8282,-5.822,-5.8218,-5.8217,0,-5.7275,-5.7401,-5.7483,-5.7522,-5.7632,-5.7669,-5.7717,-5.7794,-5.7842,-5.7915,-5.7947,-5.8027,-5.8071,-5.8132,-5.8189,-5.8178,-5.8288,-5.8284,-5.8316,-5.8314,-5.8335,-5.8332,-5.8394,-5.8363,-5.8363,-5.8363,-5.8363,0,-5.7327,-5.7391,-5.7484,-5.7534,-5.7608,-5.7671,-5.7742,-5.7793,-5.7861,-5.7921,-5.7966,-5.8021,-5.8094,-5.8159,-5.8204,-5.8283,-5.8302,-5.833,-5.8341,-5.8325,-5.8321,-5.8351,-5.8348,-5.8365,-5.8365,-5.8364,-5.8364,0,-5.7338,-5.7403,-5.7495,-5.7593,-5.7619,-5.7669,-5.7752,-5.7802,-5.7853,-5.7929,-5.7951,-5.803,-5.8109,-5.8173,-5.8275,-5.8306,-5.8388,-5.8401,-5.8362,-5.8367,-5.8394,-5.839,-5.8476,-5.849,-5.8451,-5.8451,-5.8451,0,-5.7366,-5.7417,-5.7521,-5.7565,-5.7612,-5.7682,-5.7732,-5.7796,-5.7846,-5.794,-5.7979,-5.8061,-5.813,-5.8253,-5.832,-5.8399,-5.8414,-5.8438,-5.8425,-5.8408,-5.8412,-5.8408,-5.8413,-5.8438,-5.8439,-5.8439,-5.8439,0,-5.7409,-5.7438,-5.7509,-5.7591,-5.7649,-5.7717,-5.7785,-5.7819,-5.7895,-5.7949,-5.8031,-5.8084,-5.819,-5.827,-5.8357,-5.8406,-5.8435,-5.8443,-5.8454,-5.8437,-5.8412,-5.8425,-5.8363,-5.844,-5.844,-5.844,-5.844,-5.844,-5.7429,-5.7476,-5.7556,-5.7633,-5.7692,-5.7755,-5.7807,-5.7865,-5.7934,-5.8026,-5.806,-5.8143,-5.8221,-5.834,-5.8389,-5.8455,-5.8458,-5.8474,-5.8478,-5.8481,-5.8478,-5.8403,-5.8471,-5.8471,-5.8471,-5.8471,-5.8472,0,-5.7472,-5.7526,-5.7597,-5.7692,-5.7752,-5.7776,-5.7854,-5.7902,-5.7975,-5.8046,-5.8113,-5.8207,-5.8286,-5.8359,-5.8442,-5.848,-5.8496,-5.85,-5.8497,-5.8507,-5.8472,-5.8453,-5.8486,-5.8486,-5.8486,-5.8486,-5.8486,-5.8486,-5.7502,-5.7583,-5.7622,-5.7733,-5.7787,-5.787,-5.7912,-5.797,-5.8027,-5.813,-5.8196,-5.8244,-5.8316,-5.8404,-5.8477,-5.8497,-5.8524,-5.8525,-5.8547,-5.8512,-5.851,-5.8508,-5.849,-5.853,-5.853,-5.8578,-5.8578,-5.8578]},{"header":{"parameterUnit":"m.s-1","parameterCategory":1,"la1":30.2991,"la2":30.254,"lo1":-89.0895,"lo2":-89.0444,"dy":0.0017,"dx":0.0017,"nx":28,"ny":28,"refTime":"2024-03-25T09:00:00:Z","depth":0,"parameterNumber":3,"parameterNumberName":"V-component_of_WINDS"},"data":[0,0,0,0,0,0,0,0,0,0,0,0,0,0,0,0,0,0,0,0,0,0,0,0,0,0,0,0,0,0,0,0,0,0,0,0,0,0,0,0,0,0,0,0,0,0,0,0,0,0,0,0,0,0,0,0,0,0,8.5609,8.5609,0,8.558,8.558,8.558,8.5491,8.549,8.5488,8.5486,8.5455,8.5456,8.5457,0,0,0,0,0,0,0,0,0,0,0,0,0,8.5589,8.559,8.5609,8.5609,8.5608,8.558,8.558,8.558,8.5492,8.5489,8.5487,8.5485,8.5455,8.5456,8.5457,0,0,0,0,0,0,0,0,0,0,0,0,0,8.5583,8.559,8.5609,8.5561,8.5557,8.558,8.558,8.5579,8.5492,8.5489,8.5487,8.5484,8.5455,8.5456,8.5457,8.5525,0,0,8.5462,8.5463,0,0,0,0,0,0,0,0,8.5583,8.5583,8.5569,8.5565,8.5559,8.5536,8.5561,8.5561,8.5493,8.5517,8.5486,8.5482,8.5485,8.5483,8.5484,8.5523,8.5522,8.5462,8.5463,8.5464,8.5464,0,0,0,0,0,0,0,8.5584,8.5584,8.5598,8.5569,8.5563,8.5541,8.5537,8.5561,8.5517,8.5514,8.5508,8.5506,8.5481,8.5483,8.5483,8.5522,8.5462,8.5463,8.5464,8.5465,8.5617,8.562,0,0,0,0,0,0,8.5591,8.5585,8.5598,8.5597,8.5564,8.5544,8.554,8.5547,8.5517,8.5509,8.5508,8.5502,8.5482,8.5481,8.5482,8.556,8.5464,8.5465,8.5466,8.5614,8.5618,8.5621,0,0,0,0,0,0,8.5591,8.5593,8.56,8.5589,8.5588,8.5548,8.5556,8.5548,8.5549,8.5512,8.5504,8.5518,8.548,8.5479,8.5515,8.5558,8.5466,8.5467,8.561,8.5615,8.5619,8.5717,0,0,0,0,0,0,8.5591,8.5593,8.5618,8.559,8.5589,8.5634,8.5559,8.5549,8.5552,8.5543,8.5519,8.5512,8.5477,8.5514,8.5517,8.5558,8.5468,8.5606,8.5612,8.5618,8.5709,8.5724,8.5737,0,0,0,0,0,8.559,8.5646,8.562,8.5622,8.562,8.5636,8.5636,8.5595,8.5556,8.5581,8.5558,8.5513,8.5553,8.5518,8.5521,8.5563,8.5603,8.5611,8.5618,8.5703,8.5721,8.5736,0,0,0,0,0,0,8.5678,8.5641,8.5612,8.566,8.5653,8.5622,8.5651,8.5615,8.5617,8.5609,8.5558,8.5553,8.5597,8.5583,8.5545,8.5628,8.5571,8.5579,8.5635,8.5652,8.5665,8.5667,8.5469,0,0,0,0,0,8.5704,8.5721,8.5687,8.5733,8.5731,8.5693,8.5698,8.5668,8.5657,8.5653,8.5632,8.5624,8.5634,8.5642,8.565,8.5707,8.5702,8.5738,8.5752,8.5763,8.577,8.5802,8.5818,8.5644,8.5644,8.5644,0,0,8.5756,8.5737,8.5751,8.5751,8.5741,8.576,8.569,8.5712,8.5727,8.5656,8.5689,8.5674,8.5661,8.5709,8.5729,8.5699,8.5817,8.5772,8.5781,8.5782,8.5811,8.5827,8.5842,8.5649,8.5648,8.5648,0,0,8.586,8.5848,8.5886,8.5878,8.5865,8.5839,8.5849,8.5824,8.5812,8.5845,8.5793,8.5809,8.5828,8.5822,8.5821,8.5927,8.5887,8.5931,8.6002,8.6033,8.6047,8.6059,8.6098,8.6112,8.5939,8.5939,8.5939,0,8.5926,8.5953,8.591,8.5937,8.5939,8.5878,8.5916,8.5911,8.5901,8.5904,8.5871,8.5895,8.5882,8.5928,8.5955,8.5956,8.5966,8.5933,8.6048,8.606,8.607,8.6107,8.6122,8.5944,8.5944,8.5943,8.5943,0,8.6036,8.6056,8.6088,8.6081,8.6087,8.612,8.6082,8.6093,8.6063,8.6041,8.6077,8.6059,8.6063,8.6072,8.6042,8.6115,8.6097,8.6057,8.5999,8.6093,8.6127,8.614,8.5952,8.595,8.5949,8.5947,0,0,8.6193,8.6164,8.6177,8.6174,8.6157,8.6171,8.6202,8.6207,8.6218,8.6214,8.6239,8.6258,8.6222,8.6221,8.619,8.6218,8.6305,8.6175,8.6174,8.62,8.6386,8.6417,8.6434,8.6279,8.6281,8.6283,8.6388,0,8.6293,8.6344,8.6308,8.6365,8.6384,8.6328,8.6355,8.6347,8.6329,8.6342,8.6321,8.6336,8.6286,8.6286,8.6311,8.6289,8.6342,8.6281,8.6302,8.6303,8.6307,8.6451,8.6483,8.6582,8.64,8.6403,8.6404,0,8.6416,8.6419,8.648,8.646,8.6467,8.6492,8.6495,8.6508,8.6499,8.6484,8.6485,8.6448,8.6477,8.6421,8.6462,8.6421,8.6428,8.6419,8.6422,8.6422,8.636,8.6456,8.6613,8.6628,8.6424,8.6423,8.6421,0,8.6527,8.6546,8.6585,8.6584,8.6562,8.6582,8.6573,8.6562,8.6568,8.6571,8.6574,8.658,8.6584,8.659,8.6555,8.6517,8.6602,8.6541,8.659,8.6591,8.661,8.6609,8.6771,8.6614,8.6614,8.6613,8.6613,0,8.6642,8.6682,8.6634,8.6658,8.6701,8.6659,8.6703,8.6689,8.668,8.67,8.6652,8.6672,8.6626,8.6642,8.6615,8.6654,8.6656,8.6645,8.6637,8.6649,8.6651,8.6653,8.6645,8.6617,8.6617,8.6616,8.6615,0,8.6773,8.6742,8.6782,8.6759,8.6754,8.6787,8.6768,8.6789,8.6768,8.6795,8.6799,8.6766,8.6783,8.675,8.6761,8.6744,8.6799,8.6781,8.6803,8.6797,8.6849,8.6845,8.7017,8.7038,8.6868,8.6869,8.6871,0,8.6849,8.6878,8.6859,8.687,8.6865,8.6883,8.689,8.685,8.6859,8.6853,8.6876,8.6889,8.6897,8.6927,8.6904,8.6913,8.6895,8.6955,8.6896,8.6908,8.6897,8.6896,8.6899,8.6967,8.6969,8.6971,8.6972,0,8.6987,8.6972,8.6983,8.6991,8.7001,8.7005,8.7005,8.7017,8.6975,8.6988,8.7005,8.7012,8.7025,8.7039,8.7044,8.7035,8.6998,8.6991,8.7003,8.7016,8.7028,8.7023,8.6837,8.6987,8.6985,8.6984,8.6984,8.6983,8.7093,8.7118,8.7109,8.7125,8.7121,8.7123,8.7143,8.7126,8.714,8.7148,8.7124,8.7147,8.7139,8.7142,8.7138,8.7156,8.7129,8.7146,8.715,8.7155,8.7164,8.7025,8.7156,8.7156,8.7155,8.7155,8.7155,0,8.7231,8.7223,8.7238,8.7241,8.7254,8.7218,8.7217,8.723,8.7252,8.7248,8.7258,8.7279,8.7293,8.7272,8.7283,8.7301,8.7284,8.7305,8.7304,8.7303,8.7187,8.7176,8.7319,8.7319,8.7319,8.7319,8.7319,8.7319,8.7303,8.7343,8.7327,8.7366,8.7357,8.7381,8.7383,8.7386,8.7383,8.7409,8.742,8.7407,8.7397,8.7407,8.7419,8.7412,8.7419,8.7447,8.7434,8.7327,8.7311,8.7295,8.7285,8.7448,8.7448,8.7548,8.7549,8.755]}]]